CAPE
2 2 2 1 3 3 0 2 2 0 0 0 0 0 0 0 0 0 0 0 0 0
2 2 2 3 3 2 2 1 3 2 0 0 0 0 0 0 0 0 0 0 0 0
3 4 3 1 2 0 0 0 0 0 0 0 0 0 0 0 0 0 0 0 0 0
4 4 2 1 1 0 0 0 0 0 0 0 0 0 0 0 0 0 0 0 0 0
2 2 2 2 4 3 3 1 1 0 0 0 0 0 0 0 0 0 0 0 0 0
3 1 1 1 1 3 3 2 2 3 2 0 0 0 0 0 0 0 0 0 0 0
0 0 0 0 0 0 0 0 0 0 0 0 0 0 0 0 0 0 0 0 0 0
0 0 0 0 0 0 0 0 0 0 0 0 0 0 0 0 0 0 0 0 0 0
0 0 0 0 0 0 0 0 0 0 0 0 0 0 0 0 0 0 0 0 0 0
0 0 0 0 0 0 0 0 0 0 0 0 0 0 0 0 0 0 0 0 0 0
0 0 0 0 0 0 0 0 0 0 0 0 0 0 0 0 0 0 0 0 0 0
0 0 0 0 0 0 0 0 0 0 0 0 0 0 0 0 0 0 0 0 0 0
0 0 0 0 0 0 0 0 0 0 0 0 0 0 0 0 0 0 0 0 0 0
0 0 0 0 0 0 0 0 0 0 0 0 0 0 0 0 0 0 0 0 0 0
CIN
-0 -0 -0 -0 -0 -0 -0 -0 -0 -0 -0 -0 -0 -0 -0 -0 -0 -0 -0 -0 -0 -0
-0 -0 -0 -0 -0 -0 -0 -0 -0 -0 -0 -0 -0 -0 -0 -0 -0 -0 -0 -0 -0 -0
-0 -0 -0 -0 -0 -0 -0 -0 -0 -0 -0 -0 -0 -0 -0 -0 -0 -0 -0 -0 -0 -0
-0 -0 -0 -0 -0 -0 -0 -0 -0 -0 -0 -0 -0 -0 -0 -0 -0 -0 -0 -0 -0 -0
-0 -0 -0 -0 -0 -0 -0 -0 -0 -0 -0 -0 -0 -0 -0 -0 -0 -0 -0 -0 -0 -0
-0 -0 -0 -0 -0 -0 -0 -0 -0 -0 -0 -0 -0 -0 -0 -0 -0 -0 -0 -0 -0 -0
-0 -0 -0 -0 -0 -0 -0 -0 -0 -0 -0 -0 -0 -0 -0 -0 -0 -0 -0 -0 -0 -0
-0 -0 -0 -0 -0 -0 -0 -0 -0 -0 -0 -0 -0 -0 -0 -0 -0 -0 -0 -0 -0 -0
-0 -0 -0 -0 -0 -0 -0 -0 -0 -0 -0 -0 -0 -0 -0 -0 -0 -0 -0 -0 -0 -0
-0 -0 -0 -0 -0 -0 -0 -0 -0 -0 -0 -0 -0 -0 -0 -0 -0 -0 -0 -0 -0 -0
-0 -0 -0 -0 -0 -0 -0 -0 -0 -0 -0 -0 -0 -0 -0 -0 -0 -0 -0 -0 -0 -0
-0 -0 -0 -0 -0 -0 -0 -0 -0 -0 -0 -0 -0 -0 -0 -0 -0 -0 -0 -0 -0 -0
-0 -0 -0 -0 -0 -0 -0 -0 -0 -0 -0 -0 -0 -0 -0 -0 -0 -0 -0 -0 -0 -0
-0 -0 -0 -0 -0 -0 -0 -0 -0 -0 -0 -0 -0 -0 -0 -0 -0 -0 -0 -0 -0 -0
Wind_Speed
11 13 13 7 7 13 18 20 16 18 14 18 18 19 18 15 18 16 16 16 15 16
10 11 10 10 3 6 8 12 12 15 14 16 15 17 16 16 18 19 17 15 17 15
6 6 5 3 4 4 4 3 4 5 7 13 14 13 15 16 17 16 16 16 17 17
7 6 5 4 5 4 4 4 4 6 7 6 9 10 9 10 11 13 14 16 18 19
10 9 7 5 3 4 4 5 6 7 6 4 4 7 9 12 14 14 16 18 20 22
12 11 10 9 5 6 6 6 5 6 7 7 7 7 9 9 10 13 16 16 17 18
10 13 15 11 6 14 8 7 8 8 8 9 10 10 11 11 12 11 12 13 11 10
8 12 14 14 14 14 13 10 10 9 11 10 10 10 9 9 9 9 10 10 10 10
10 14 14 15 14 13 13 13 13 12 12 12 12 11 10 10 10 10 11 11 12 12
15 15 14 13 13 13 13 12 12 12 12 12 12 12 12 12 12 12 12 12 12 13
14 13 12 12 12 12 13 13 12 12 13 13 14 13 13 13 13 13 13 13 13 14
14 13 13 12 12 12 12 12 12 12 13 14 14 14 14 14 14 14 14 14 15 15
11 11 10 11 11 11 12 12 12 12 14 14 15 15 15 15 15 15 16 16 16 16
8 8 9 9 9 10 10 11 11 12 13 14 14 14 15 16 16 16 16 16 16 16
Wind_Direction
266 249 239 248 244 242 245 253 248 235 242 247 251 254 259 262 263 267 272 277 284 291
255 244 244 250 284 82 268 258 249 241 253 253 257 261 267 268 268 271 277 281 284 292
345 325 325 331 270 3 22 325 257 268 267 257 260 267 276 274 275 279 283 286 287 294
356 349 359 296 282 298 309 310 291 289 273 275 277 272 280 286 284 285 287 288 291 294
30 28 20 353 320 335 305 309 297 287 303 305 288 281 291 287 287 286 287 287 291 295
50 42 36 26 356 359 334 6 351 349 319 315 308 308 301 301 300 297 297 300 301 304
40 55 60 41 24 60 17 13 13 3 350 344 321 317 312 317 319 322 323 325 335 340
23 45 55 54 55 56 48 29 20 6 20 359 6 3 8 8 5 3 358 5 3 359
51 68 66 61 55 47 50 47 38 25 23 25 17 20 23 17 8 1 356 349 348 348
78 74 63 53 49 47 41 33 26 20 17 17 15 14 11 5 360 354 350 348 346 344
78 65 56 52 47 40 34 32 28 22 16 12 6 7 5 1 356 353 350 347 346 342
82 74 65 58 51 45 39 29 22 22 19 14 13 10 6 2 -0 357 352 349 346 344
75 68 62 58 53 47 43 38 32 23 15 13 12 11 8 3 358 351 348 347 347 345
72 69 64 60 52 49 42 38 31 24 22 19 15 12 7 0 357 354 352 351 349 349